Helicity
564 465 380 333 274 241 228 224 204 187 142 150 136 123 114 112 113 113 95 88 93 100 100 111 108 127 146 170 162 154 149 155 129 90 116 89 60 66 79 71 66 52 49
537 472 447 374 331 297 269 246 231 206 187 154 146 127 120 117 106 109 109 110 100 110 123 137 138 169 146 174 182 177 164 160 143 100 92 86 65 66 67 60 61 47 38
609 486 435 422 384 332 288 258 238 232 223 206 199 162 137 124 116 109 110 101 100 104 124 143 155 162 161 196 202 212 183 185 163 141 85 84 82 76 60 59 60 60 70
582 495 431 406 369 330 296 277 252 230 210 192 178 180 168 146 126 121 119 110 103 114 119 130 145 176 187 187 218 218 195 171 194 167 153 111 98 85 77 65 65 65 84
570 489 457 406 353 320 295 282 259 226 205 189 185 189 179 169 173 137 120 109 102 103 121 134 141 160 184 212 255 244 214 201 204 206 178 152 132 124 114 108 113 89 70
454 503 420 390 355 327 308 293 269 247 223 206 199 213 227 202 200 139 137 143 132 127 138 137 123 153 156 158 183 171 180 194 199 212 181 167 100 112 129 103 81 84 97
439 426 429 354 354 345 335 307 279 258 247 225 197 193 194 210 185 159 144 157 172 152 143 155 180 173 132 148 133 132 143 144 144 136 161 148 119 114 91 76 105 136 142
369 376 370 389 368 345 331 307 292 265 249 226 209 197 185 178 212 206 156 157 184 190 175 221 205 185 158 118 148 148 132 132 129 148 164 136 134 110 114 97 109 150 136
417 430 399 378 368 365 341 315 284 269 251 217 206 207 204 198 209 221 187 156 167 170 150 141 146 156 150 126 112 137 125 116 106 110 124 127 123 91 92 176 219 236 178
281 317 343 342 338 321 310 300 254 228 225 212 201 199 215 225 208 234 237 160 153 160 146 141 134 130 134 130 115 132 158 128 118 124 154 144 100 88 120 159 187 201 233
264 244 243 257 290 272 272 256 244 239 222 213 214 212 219 217 229 254 272 238 184 169 162 165 136 107 105 111 107 116 141 122 121 140 144 145 128 129 127 154 176 194 230
251 245 234 221 217 239 254 237 241 239 242 236 217 229 238 272 264 280 275 288 309 240 197 150 147 121 89 50 76 86 120 122 151 163 151 142 134 124 104 155 158 173 167
236 228 218 208 199 227 258 253 231 239 249 258 247 238 240 226 231 296 297 317 283 262 229 229 189 116 32 72 67 96 99 133 150 158 147 124 123 104 122 168 207 215 223
192 201 205 207 221 205 208 222 231 244 252 251 259 247 237 235 226 225 233 235 234 262 235 214 205 136 102 92 118 115 136 139 140 145 135 126 141 189 188 195 190 196 231
144 148 163 175 184 183 174 186 218 222 226 235 217 226 242 249 266 295 260 225 211 203 179 143 137 106 118 131 137 146 140 154 156 158 160 158 196 194 208 228 226 256 249
106 110 138 157 165 166 167 168 137 153 212 217 219 238 228 247 286 247 219 215 224 201 160 139 161 154 160 164 127 82 108 147 140 176 188 173 190 199 185 222 268 271 202
88 88 105 126 130 152 174 178 203 179 179 143 186 223 220 246 234 240 186 156 155 180 177 181 176 154 157 171 158 165 185 196 189 188 175 163 173 190 180 207 197 225 228
57 70 78 89 102 122 130 149 152 181 207 202 184 202 210 232 251 218 204 196 146 172 189 195 188 181 165 152 147 74 108 149 198 201 220 195 201 185 220 212 209 172 204
50 58 61 77 86 95 98 117 124 138 156 181 197 172 199 248 219 191 206 197 193 203 207 200 165 141 135 133 126 113 101 114 76 96 129 155 155 199 156 181 162 170 171
41 47 65 69 73 78 83 93 113 124 125 131 146 173 190 179 194 215 199 213 218 216 198 192 191 170 180 179 181 144 132 124 97 113 110 140 130 138 132 126 145 186 178
50 53 50 59 62 61 69 77 99 114 114 120 118 110 167 165 151 157 178 192 194 191 195 194 199 180 176 167 161 155 138 122 103 98 89 101 118 114 113 135 151 155 182
47 52 53 57 59 61 58 77 74 89 99 110 124 125 146 106 128 140 137 150 157 152 130 142 159 158 149 171 174 130 105 100 113 119 111 115 64 98 112 124 130 148 171
45 46 54 57 57 61 63 58 62 75 91 99 99 104 117 118 116 125 136 137 132 123 110 107 126 138 108 145 149 139 117 112 105 105 114 94 81 79 87 101 139 164 168
52 58 60 66 63 61 64 70 58 68 79 89 93 93 93 101 116 116 119 128 128 137 112 105 106 119 128 143 133 125 151 120 118 140 137 107 82 97 101 108 117 127 163
58 60 61 61 61 64 63 60 65 70 68 72 80 90 91 92 95 102 98 102 112 127 129 123 108 141 154 169 153 174 173 183 150 122 109 106 98 95 98 105 114 130 140
58 62 63 64 67 67 61 62 62 63 70 78 72 77 76 81 89 96 91 96 98 111 113 117 134 150 175 164 149 201 198 168 155 213 145 107 109 119 128 115 106 129 139
Wind_Speed
47 47 46 48 47 48 49 49 52 55 57 58 57 55 54 52 51 50 50 48 47 44 41 41 41 39 40 36 36 35 38 36 41 43 41 41 42 43 40 38 37 36 37
49 47 47 48 49 50 52 54 54 55 56 56 56 54 52 50 48 48 49 49 50 52 49 47 44 43 42 41 38 40 38 35 38 45 47 45 42 46 42 39 38 37 40
48 47 48 48 50 52 53 54 55 55 55 55 56 57 56 53 50 48 50 51 51 51 50 50 49 47 49 45 42 42 40 38 40 45 49 48 44 45 45 42 43 42 42
46 50 51 51 53 54 54 55 55 56 57 58 60 61 59 57 55 54 53 55 56 55 54 53 51 51 51 49 45 43 42 42 43 47 49 50 47 45 44 49 49 44 48
51 53 54 55 55 54 55 56 56 56 57 58 60 61 60 59 58 56 58 59 59 58 54 53 51 50 49 48 46 45 46 47 48 49 49 50 48 47 46 48 50 54 53
53 54 55 56 57 57 57 57 57 57 57 59 59 60 63 61 60 61 61 62 62 62 60 56 52 48 43 43 46 48 46 50 51 50 50 51 52 49 49 49 49 54 61
55 54 56 58 59 59 60 59 59 59 59 59 59 60 62 65 65 64 64 65 65 63 60 58 54 50 48 46 47 49 50 44 43 47 50 50 53 51 50 51 52 50 54
54 56 57 59 60 61 62 62 62 61 62 62 61 60 62 61 62 63 64 63 63 62 58 55 57 56 52 53 54 56 57 53 50 51 53 54 52 52 53 54 52 57 56
59 60 61 62 63 63 63 63 63 64 64 63 63 63 63 62 62 65 63 62 64 64 61 58 58 61 58 58 63 63 60 58 54 54 54 55 54 54 53 54 51 49 55
61 62 61 62 64 66 65 66 66 66 67 65 65 63 63 64 60 61 63 64 66 67 67 68 65 62 61 60 64 69 71 67 64 65 64 60 56 55 52 45 46 49 51
62 61 61 61 63 64 67 68 69 69 68 68 66 65 65 62 61 62 63 65 69 70 70 69 69 70 70 70 68 70 71 67 67 64 61 60 58 55 51 47 46 46 49
64 64 64 62 62 64 66 66 67 69 70 70 70 69 65 64 64 65 63 63 68 73 75 72 72 74 72 71 72 69 66 67 65 62 62 63 60 57 55 50 46 46 46
65 65 65 65 62 63 67 69 69 67 69 71 69 70 70 68 67 68 66 68 69 71 71 74 79 77 71 70 69 68 68 67 67 67 67 66 60 60 55 53 51 46 46
64 65 65 65 67 65 65 66 69 70 70 71 73 75 72 72 69 66 68 68 67 69 72 74 76 77 73 70 67 66 64 63 65 68 68 66 61 58 57 53 54 51 52
60 62 63 64 66 66 65 66 68 66 67 73 74 74 78 77 72 76 72 71 70 71 75 72 73 72 73 70 69 69 66 65 65 65 67 66 64 63 62 58 56 55 58
56 58 60 62 63 66 66 67 62 63 67 68 68 70 74 76 78 77 76 76 77 74 73 72 72 69 70 70 68 70 70 70 69 69 68 69 67 66 67 62 59 59 58
56 57 58 59 62 65 66 67 70 65 62 62 65 67 69 74 75 77 78 77 75 73 73 71 70 69 70 69 70 70 71 69 70 71 71 69 68 67 66 66 64 64 61
57 57 56 57 59 60 62 64 64 67 69 69 65 67 67 70 72 73 73 75 70 66 68 72 72 71 72 74 75 76 77 76 73 72 72 73 72 70 69 68 66 66 66
59 59 58 58 59 61 60 61 62 63 64 67 67 65 66 70 68 65 65 65 68 69 68 69 69 71 71 72 73 74 76 78 76 75 72 72 71 70 72 70 68 66 64
57 59 60 60 61 61 61 62 63 63 64 65 65 68 69 69 69 67 65 65 67 68 70 73 70 70 70 71 73 74 77 79 78 80 80 76 74 71 69 70 70 71 68
58 58 58 58 59 61 62 63 65 66 67 67 67 65 68 67 66 66 67 67 67 70 71 72 71 70 71 72 74 74 76 77 75 78 86 80 75 84 83 80 75 71 71
62 63 62 61 59 60 59 60 61 62 64 66 66 66 65 63 64 64 65 65 66 68 67 70 71 71 73 74 75 73 77 78 79 81 80 78 82 80 81 81 78 79 75
62 64 64 64 62 63 63 63 63 63 64 63 62 63 62 63 63 65 67 66 67 68 68 68 70 70 71 69 71 74 78 79 82 83 84 83 82 79 76 78 75 75 75
57 62 63 64 64 65 66 67 66 65 66 66 65 64 64 64 65 67 67 66 68 68 68 69 71 72 73 72 72 72 75 78 81 84 80 84 85 77 72 74 76 75 76
61 61 61 62 63 64 65 67 67 67 68 66 66 65 65 66 66 66 67 66 68 69 71 71 71 73 74 76 75 76 78 82 82 81 83 83 86 85 78 71 76 77 75
61 62 63 61 61 61 62 64 65 66 68 68 65 66 66 65 66 67 68 68 68 70 71 71 73 75 77 76 74 78 78 80 80 84 83 82 82 81 75 70 72 75 77
Wind_Direction
249 249 250 252 254 255 256 259 261 263 263 264 265 266 266 267 268 268 271 275 278 282 285 286 287 293 299 304 307 311 312 315 315 320 323 324 323 322 323 325 325 324 324
251 253 254 254 257 258 260 263 266 266 266 265 265 266 266 267 268 269 270 274 276 278 281 284 287 292 293 299 303 304 306 310 312 313 317 319 320 319 320 320 321 318 317
255 255 255 258 260 261 263 265 266 267 267 267 267 266 266 266 267 270 273 275 278 279 280 282 285 288 291 294 296 300 303 305 307 309 314 319 320 318 317 316 316 314 313
258 257 259 261 263 264 266 268 268 269 269 269 269 268 267 267 267 270 274 277 279 280 281 282 283 284 288 290 291 294 299 301 302 304 308 311 313 315 314 312 311 314 311
261 260 262 264 265 267 268 269 270 271 271 272 271 269 268 268 269 270 274 276 278 279 281 283 285 286 287 288 289 293 296 297 299 300 303 306 308 309 307 312 311 311 309
264 263 266 266 267 268 269 270 271 272 273 272 273 271 270 270 271 271 274 276 277 278 279 281 284 286 288 286 287 291 292 294 295 297 299 300 302 304 306 307 309 309 309
268 268 268 269 269 269 270 271 271 272 274 275 275 274 273 273 273 274 274 275 277 278 278 279 281 285 287 293 291 289 289 288 290 296 296 298 300 302 304 304 305 305 307
271 269 270 270 270 271 271 271 272 273 274 275 276 277 276 277 277 276 276 276 277 279 280 279 280 283 286 290 292 290 289 290 288 289 292 296 298 300 301 302 303 303 304
272 272 273 272 271 271 271 272 273 274 274 275 277 277 277 278 280 279 279 277 277 278 280 281 280 283 286 288 288 289 289 291 294 292 290 293 293 294 295 300 298 297 299
274 275 277 275 273 271 272 273 274 273 274 275 276 276 278 278 281 284 282 279 278 279 279 280 280 281 284 286 288 288 287 289 291 292 292 292 292 293 293 288 292 293 296
277 279 278 278 277 275 275 274 274 274 274 274 275 276 276 279 281 283 284 282 279 280 279 280 281 282 283 284 286 287 286 289 290 290 291 293 294 293 292 290 287 287 291
278 277 277 278 278 278 278 277 276 275 274 274 273 274 277 280 282 284 285 286 287 282 280 282 282 284 285 285 286 286 285 286 287 288 288 291 291 291 291 290 289 286 288
276 276 277 277 279 280 277 276 275 276 274 273 274 274 275 279 282 284 285 287 287 286 285 285 284 285 285 285 284 284 284 283 284 284 285 287 287 291 291 293 293 291 289
277 277 277 276 277 277 278 278 276 275 274 274 274 274 277 279 282 285 287 287 287 288 288 288 286 285 283 283 284 284 283 283 282 283 285 285 287 288 286 288 288 287 285
280 279 278 278 278 277 277 277 276 277 277 276 275 276 276 276 281 285 285 286 287 288 290 289 287 285 284 282 280 281 281 281 280 283 285 285 284 282 283 284 283 285 281
284 283 284 282 280 278 278 278 280 279 280 279 278 279 280 280 282 283 284 284 285 287 286 286 285 286 284 283 283 283 282 280 280 283 281 282 282 282 283 281 280 282 280
287 287 287 285 281 280 280 280 279 281 284 281 282 283 282 284 284 284 283 283 283 284 281 283 283 284 283 284 285 284 285 284 284 281 280 279 281 281 282 281 280 279 277
288 289 289 289 288 287 284 283 281 280 280 280 283 284 285 286 286 285 285 283 280 280 282 281 282 285 285 284 285 283 285 284 283 284 280 280 279 280 280 280 280 279 279
286 288 287 289 290 289 288 287 284 284 284 283 285 285 287 288 287 286 287 282 281 281 283 284 284 283 284 285 286 285 284 282 282 282 283 281 281 280 279 280 280 278 279
288 288 287 286 288 288 287 285 285 285 284 284 284 284 286 287 283 284 285 284 284 283 284 282 285 286 286 286 286 286 285 283 282 281 280 282 281 281 281 279 280 281 280
285 287 288 288 289 288 288 285 285 284 283 282 282 284 287 286 284 284 284 284 284 284 284 285 286 287 287 286 285 285 286 286 284 284 277 280 280 276 277 279 281 281 281
283 282 283 284 287 290 291 291 290 289 286 285 285 285 289 287 287 287 286 287 287 287 289 287 286 286 286 285 286 288 286 286 285 283 282 282 280 282 281 282 281 280 281
283 281 281 281 283 285 287 287 287 288 289 289 290 290 290 290 289 288 287 289 288 288 288 289 288 287 288 290 289 288 286 287 284 282 282 281 283 283 284 283 282 281 280
283 282 281 281 281 282 284 284 285 287 287 287 288 288 289 289 289 287 287 289 288 288 288 288 286 286 289 290 289 289 289 289 288 284 283 280 280 284 284 283 282 281 282
283 282 282 282 283 283 284 284 285 285 284 286 286 287 288 287 287 288 288 288 288 289 288 288 287 288 288 289 289 291 291 291 289 289 281 278 278 279 281 283 283 284 284
283 283 283 282 282 283 285 285 286 287 285 285 287 286 286 287 288 288 287 289 289 291 290 290 290 289 288 288 290 292 295 294 291 288 283 280 278 279 281 282 282 283 284